Content
SEND FEEDBACK

Daily
Averages
Monthly
Summary
Turkey

CEYHAN, TURKEY


Home > Middle East > Turkey
Elevation: 98 feet     Latitude: 37 00N     Longitude: 035 48E

WEATHER
 
SELECT A DAY
Number of Records: 181,087;   Date Range: 7/1/96 - 9/30/14
 
SHARE

PRINT THIS DATA

[ ← Previous Day ]
WEATHER ALMANAC - JANUARY 23, 2013
[ Next Day → ]
[ °C ]   °F
Weather ElementAverageHighLow
Temperature52.6 °F55.4 °F (12:50 am)50 °F (9:20 pm)
Dewpoint49.2 °F53.6 °F (2:50 pm)42.8 °F (12:50 am)
Humidity89 %100 % (8:50 am)56 % (2:00 am)
Barometer30.02 in30.06 in (6:20 pm)29.98 in (12:50 am)
Wind Speed7.5 mph15 mph (4:50 pm)
Weather ElementAverage
Visibility6.1 mi
Wind DirectionENE (81 °)

Weather ElementTotal
Precipitation---
Heating Degree Days12.3 (Base 65)
Growing Degree Days2.7 (Base 50)
Averaged from 51 records on January 23, 2013
WEATHER CONDITIONS BREAKOUT
WIND DIRECTION BREAKOUT
WEATHER BY HOUR - JANUARY 23, 2013
[ °C ]   °F
Local TimeTemperatureDewpointHumidityBarometerVisibilityWind DirectionWind SpeedGust SpeedPrecipitationEventsConditions
12:50 AM55.4 °F42.8 °F63 %29.98 in6.2 miNE (50°)9.2 mphMostly Cloudy
1:20 AM53.6 °F42.8 °F67 %29.98 in6.2 miNE (40°)8.1 mphMostly Cloudy
1:50 AM55.4 °F44.6 °F67 %29.98 in6.2 miNE (40°)8.1 mphMostly Cloudy
2:00 AM55.0 °F44.0 °F56 %29.99 in6.0 miNE (40°)8.1 mphPartly Cloudy
2:20 AM53.6 °F44.6 °F72 %29.98 in6.2 miNE (40°)9.2 mphMostly Cloudy
2:50 AM53.6 °F44.6 °F72 %29.98 in6.2 miNE (50°)8.1 mphMostly Cloudy
3:20 AM53.6 °F44.6 °F72 %29.98 in6.2 miNorth (360°)4.6 mphMostly Cloudy
3:50 AM53.6 °F44.6 °F72 %29.98 in6.2 miNNE (30°)4.6 mphMostly Cloudy
4:20 AM53.6 °F44.6 °F72 %29.98 in6.2 miNE (40°)4.6 mphMostly Cloudy
4:50 AM53.6 °F44.6 °F72 %29.98 in6.2 miNE (40°)6.9 mphMostly Cloudy
5:20 AM53.6 °F44.6 °F72 %29.98 in6.2 miNNW (340°)4.6 mphMostly Cloudy
5:50 AM53.6 °F44.6 °F72 %29.98 in6.2 miNorth (10°)5.8 mphMostly Cloudy
6:20 AM53.6 °F44.6 °F72 %29.98 in6.2 miSouth (190°)4.6 mphMostly Cloudy
6:50 AM51.8 °F46.4 °F82 %30.01 in6.2 miNE (50°)2.3 mphRainLight Rain Showers
7:20 AM51.8 °F48.2 °F88 %30.01 in6.2 miESE (120°)3.5 mphRainLight Rain Showers
7:50 AM51.8 °F48.2 °F88 %30.01 in6.2 miEast (90°)4.6 mphMostly Cloudy
8:00 AM52.0 °F48.0 °F80 %30.02 in6.0 miEast (90°)4.6 mphRainLight Rain Showers
8:20 AM51.8 °F50.0 °F94 %30.01 in6.2 miWNW (300°)2.3 mphMostly Cloudy
8:50 AM51.8 °F51.8 °F100 %30.04 in6.2 miWNW (290°)2.3 mphRainLight Rain Showers
9:20 AM51.8 °F51.8 °F100 %30.04 in6.2 miEast (90°)2.3 mphMostly Cloudy
9:50 AM53.6 °F51.8 °F94 %30.04 in6.2 miNNE (20°)4.6 mphRainLight Rain Showers
10:20 AM53.6 °F51.8 °F94 %30.04 in6.2 miNNE (30°)4.6 mphMostly Cloudy
10:50 AM53.6 °F51.8 °F94 %30.01 in6.2 miNNE (30°)11.5 mphRainLight Rain Showers
11:20 AM51.8 °F51.8 °F100 %30.01 in6.2 miNorth (360°)6.9 mphRainLight Rain Showers
11:50 AM51.8 °F51.8 °F100 %30.01 in3.1 miNorth (10°)11.5 mphRainRain Showers
12:20 PM51.8 °F51.8 °F100 %29.98 in6.2 miNE (40°)11.5 mphRainLight Rain Showers
12:50 PM51.8 °F51.8 °F100 %29.98 in6.2 miNE (40°)11.5 mphRainLight Rain Showers
1:20 PM51.8 °F51.8 °F100 %29.98 in6.2 miNNE (20°)11.5 mphRainLight Rain Showers
1:50 PM51.8 °F51.8 °F100 %30.01 in6.2 miNE (40°)13.8 mphRainLight Rain Showers
2:00 PM52.0 °F51.0 °F97 %30.00 in6.0 miNE (40°)13.8 mphRainLight Rain Showers
2:20 PM53.6 °F51.8 °F94 %29.98 in6.2 miNE (50°)12.7 mphRainLight Rain Showers
2:50 PM55.4 °F53.6 °F94 %30.01 in6.2 miENE (60°)10.4 mphMostly Cloudy
3:20 PM53.6 °F53.6 °F100 %30.01 in6.2 miNE (40°)12.7 mphMostly Cloudy
3:50 PM53.6 °F53.6 °F100 %30.01 in6.2 miENE (70°)13.8 mphMostly Cloudy
4:20 PM53.6 °F51.8 °F94 %30.01 in6.2 miENE (60°)12.7 mphMostly Cloudy
4:50 PM51.8 °F51.8 °F100 %30.04 in6.2 miENE (60°)15.0 mphMostly Cloudy
5:20 PM51.8 °F51.8 °F100 %30.04 in6.2 miNNW (340°)3.5 mphMostly Cloudy
5:50 PM51.8 °F51.8 °F100 %30.04 in6.2 miNE (40°)5.8 mphMostly Cloudy
6:20 PM51.8 °F50.0 °F94 %30.06 in6.2 miNE (50°)5.8 mphMostly Cloudy
6:50 PM51.8 °F51.8 °F100 %30.06 in6.2 miNE (40°)8.1 mphMostly Cloudy
7:20 PM51.8 °F50.0 °F94 %30.06 in6.2 miNNE (20°)5.8 mphMostly Cloudy
7:50 PM51.8 °F50.0 °F94 %30.04 in6.2 miNNE (30°)4.6 mphMostly Cloudy
8:00 PM51.0 °F50.0 °F97 %30.06 in6.0 miNNE (30°)4.6 mphPartly Cloudy
8:20 PM51.8 °F50.0 °F94 %30.04 in6.2 miNNE (30°)6.9 mphMostly Cloudy
8:50 PM51.8 °F50.0 °F94 %30.06 in6.2 miNNE (30°)6.9 mphMostly Cloudy
9:20 PM50.0 °F50.0 °F100 %30.06 in6.2 miNE (50°)4.6 mphMostly Cloudy
9:50 PM51.8 °F50.0 °F94 %30.06 in6.2 miNE (50°)9.2 mphMostly Cloudy
10:20 PM50.0 °F50.0 °F100 %30.06 in6.2 miNE (40°)6.9 mphMostly Cloudy
10:50 PM51.8 °F50.0 °F94 %30.06 in6.2 miNE (40°)8.1 mphMostly Cloudy
11:20 PM51.8 °F50.0 °F94 %30.06 in6.2 miNNE (30°)6.9 mphMostly Cloudy
11:50 PM51.8 °F50.0 °F94 %30.06 in6.2 miNE (40°)8.1 mphMostly Cloudy
Hourly data recorded from LTAG, located miles away from Ceyhan, Turkey







STORIES FROM OUR PARTNERS